Time,TemperatureF,DewpointF,PressureIn,WindDirection,WindDirectionDegrees,WindSpeedMPH,WindSpeedGustMPH,Humidity,HourlyPrecipIn,Conditions,Clouds,dailyrainin,SoftwareType,DateUTC
2013-03-21 00:03:00,21.0,16.0,29.88,NW,315,5.0,8.0,80,0.00,,,0.00,,2013-03-21 04:03:00,
2013-03-21 00:13:00,21.0,16.0,29.88,NW,315,5.0,8.0,80,0.00,,,0.00,,2013-03-21 04:13:00,
2013-03-21 00:23:00,21.0,15.0,29.88,NW,315,4.0,8.0,78,0.00,,,0.00,,2013-03-21 04:23:00,
2013-03-21 00:33:00,21.0,15.0,29.88,NNW,338,4.0,8.0,78,0.00,,,0.00,,2013-03-21 04:33:00,
2013-03-21 00:43:00,21.0,15.0,29.88,NNW,338,4.0,8.0,78,0.00,,,0.00,,2013-03-21 04:43:00,
2013-03-21 00:53:00,21.0,15.0,29.88,NNW,338,4.0,8.0,78,0.00,,,0.00,,2013-03-21 04:53:00,
2013-03-21 01:02:00,22.0,16.0,29.88,WNW,292,3.0,6.0,79,0.00,,,0.00,,2013-03-21 05:02:00,
2013-03-21 01:12:00,22.0,16.0,29.88,WNW,292,3.0,6.0,79,0.00,,,0.00,,2013-03-21 05:12:00,
2013-03-21 01:22:00,22.0,16.0,29.89,NW,305,2.0,7.0,79,0.00,,,0.00,,2013-03-21 05:22:00,
2013-03-21 01:32:00,22.0,16.0,29.89,NW,305,2.0,7.0,79,0.00,,,0.00,,2013-03-21 05:32:00,
2013-03-21 01:43:00,22.0,16.0,29.89,NW,305,2.0,7.0,79,0.00,,,0.00,,2013-03-21 05:43:00,
2013-03-21 01:52:00,22.0,16.0,29.88,NW,315,4.0,6.0,78,0.00,,,0.00,,2013-03-21 05:52:00,
2013-03-21 02:02:00,22.0,16.0,29.88,West,270,2.0,7.0,79,0.00,,,0.00,,2013-03-21 06:02:00,
2013-03-21 02:12:00,22.0,16.0,29.88,West,270,2.0,7.0,79,0.00,,,0.00,,2013-03-21 06:12:00,
2013-03-21 02:22:00,22.0,16.0,29.88,NNW,338,6.0,6.0,79,0.00,,,0.00,,2013-03-21 06:22:00,
2013-03-21 02:32:00,22.0,16.0,29.88,West,270,2.0,6.0,79,0.00,,,0.00,,2013-03-21 06:32:00,
2013-03-21 02:42:00,22.0,16.0,29.88,West,270,2.0,6.0,79,0.00,,,0.00,,2013-03-21 06:42:00,
2013-03-21 02:52:00,22.0,16.0,29.88,NW,315,3.0,8.0,79,0.00,,,0.00,,2013-03-21 06:52:00,
2013-03-21 03:02:00,22.0,16.0,29.88,WNW,294,2.0,6.0,79,0.00,,,0.00,,2013-03-21 07:02:00,
2013-03-21 03:12:00,22.0,16.0,29.88,WNW,294,2.0,6.0,79,0.00,,,0.00,,2013-03-21 07:12:00,
2013-03-21 03:22:00,22.0,16.0,29.88,West,270,5.0,7.0,79,0.00,,,0.00,,2013-03-21 07:22:00,
2013-03-21 03:32:00,22.0,16.0,29.88,West,270,5.0,7.0,79,0.00,,,0.00,,2013-03-21 07:32:00,
2013-03-21 03:42:00,22.0,16.0,29.88,West,270,5.0,7.0,79,0.00,,,0.00,,2013-03-21 07:42:00,
2013-03-21 03:52:00,22.0,16.0,29.88,West,270,5.0,8.0,79,0.00,,,0.00,,2013-03-21 07:52:00,
2013-03-21 04:02:00,22.0,16.0,29.88,West,270,5.0,8.0,79,0.00,,,0.00,,2013-03-21 08:02:00,
2013-03-21 04:13:00,22.0,16.0,29.88,WNW,294,3.0,3.0,79,0.00,,,0.00,,2013-03-21 08:13:00,
2013-03-21 04:22:00,22.0,16.0,29.88,WNW,294,3.0,3.0,79,0.00,,,0.00,,2013-03-21 08:22:00,
2013-03-21 04:33:00,22.0,16.0,29.88,West,270,2.0,6.0,79,0.00,,,0.00,,2013-03-21 08:33:00,
2013-03-21 04:42:00,22.0,16.0,29.88,West,270,2.0,6.0,79,0.00,,,0.00,,2013-03-21 08:42:00,
2013-03-21 04:52:00,22.0,16.0,29.88,West,270,2.0,6.0,79,0.00,,,0.00,,2013-03-21 08:52:00,
2013-03-21 05:02:00,22.0,16.0,29.88,NW,315,6.0,7.0,79,0.00,,,0.00,,2013-03-21 09:02:00,
2013-03-21 05:11:00,22.0,16.0,29.88,NW,315,6.0,7.0,79,0.00,,,0.00,,2013-03-21 09:11:00,
2013-03-21 05:21:00,22.0,16.0,29.87,WNW,292,6.0,7.0,79,0.00,,,0.00,,2013-03-21 09:21:00,
2013-03-21 05:33:00,22.0,16.0,29.88,NW,315,4.0,7.0,79,0.00,,,0.00,,2013-03-21 09:33:00,
2013-03-21 05:43:00,22.0,16.0,29.88,NW,315,4.0,7.0,79,0.00,,,0.00,,2013-03-21 09:43:00,
2013-03-21 05:53:00,21.0,16.0,29.88,NW,305,2.0,6.0,79,0.00,,,0.00,,2013-03-21 09:53:00,
2013-03-21 06:03:00,21.0,16.0,29.88,West,270,2.0,5.0,79,0.00,,,0.00,,2013-03-21 10:03:00,
2013-03-21 06:12:00,21.0,16.0,29.88,West,270,2.0,5.0,79,0.00,,,0.00,,2013-03-21 10:12:00,
2013-03-21 06:22:00,21.0,16.0,29.88,NW,315,3.0,6.0,79,0.00,,,0.00,,2013-03-21 10:22:00,
2013-03-21 06:33:00,21.0,16.0,29.88,NW,315,3.0,6.0,79,0.00,,,0.00,,2013-03-21 10:33:00,
2013-03-21 06:42:00,21.0,16.0,29.88,NW,315,3.0,6.0,79,0.00,,,0.00,,2013-03-21 10:42:00,
2013-03-21 06:53:00,21.0,16.0,29.88,NW,315,3.0,7.0,79,0.00,,,0.00,,2013-03-21 10:53:00,
2013-03-21 07:03:00,21.0,16.0,29.88,NW,315,3.0,7.0,79,0.00,,,0.00,,2013-03-21 11:03:00,
2013-03-21 07:12:00,21.0,16.0,29.88,NW,315,3.0,7.0,79,0.00,,,0.00,,2013-03-21 11:12:00,
2013-03-21 07:22:00,21.0,15.0,29.88,NNW,338,3.0,6.0,78,0.00,,,0.00,,2013-03-21 11:22:00,
2013-03-21 07:33:00,20.0,14.0,29.89,West,277,5.0,6.0,78,0.00,,,0.00,,2013-03-21 11:33:00,
2013-03-21 07:43:00,20.0,14.0,29.89,West,277,5.0,6.0,78,0.00,,,0.00,,2013-03-21 11:43:00,
2013-03-21 07:53:00,20.0,14.0,29.89,WNW,292,5.0,7.0,78,0.00,,,0.00,,2013-03-21 11:53:00,
2013-03-21 08:02:00,20.0,14.0,29.89,WNW,292,5.0,7.0,78,0.00,,,0.00,,2013-03-21 12:02:00,
2013-03-21 08:12:00,20.0,14.0,29.89,WNW,292,5.0,7.0,78,0.00,,,0.00,,2013-03-21 12:12:00,
2013-03-21 08:22:00,20.0,14.0,29.90,WNW,292,5.0,8.0,78,0.00,,,0.00,,2013-03-21 12:22:00,
2013-03-21 08:32:00,20.0,14.0,29.90,WNW,292,5.0,8.0,78,0.00,,,0.00,,2013-03-21 12:32:00,
2013-03-21 08:43:00,20.0,14.0,29.90,WNW,292,5.0,8.0,78,0.00,,,0.00,,2013-03-21 12:43:00,
2013-03-21 08:53:00,20.0,15.0,29.90,NW,318,3.0,7.0,80,0.00,,,0.00,,2013-03-21 12:53:00,
2013-03-21 09:02:00,20.0,15.0,29.90,NW,315,3.0,6.0,81,0.00,,,0.00,,2013-03-21 13:02:00,
2013-03-21 09:12:00,20.0,15.0,29.90,NW,315,3.0,6.0,81,0.00,,,0.00,,2013-03-21 13:12:00,
2013-03-21 09:22:00,20.0,15.0,29.90,NNW,338,4.0,5.0,81,0.00,,,0.00,,2013-03-21 13:22:00,
2013-03-21 09:32:00,20.0,15.0,29.90,NW,315,3.0,7.0,80,0.00,,,0.00,,2013-03-21 13:32:00,
2013-03-21 09:42:00,20.0,15.0,29.90,NW,315,3.0,7.0,80,0.00,,,0.00,,2013-03-21 13:42:00,
2013-03-21 09:52:00,20.0,15.0,29.90,WNW,292,6.0,7.0,79,0.00,,,0.00,,2013-03-21 13:52:00,
2013-03-21 10:02:00,21.0,15.0,29.90,NW,315,2.0,6.0,78,0.00,,,0.00,,2013-03-21 14:02:00,
2013-03-21 10:12:00,21.0,15.0,29.90,North,0,3.0,12.0,76,0.00,,,0.00,,2013-03-21 14:12:00,
2013-03-21 10:22:00,21.0,15.0,29.90,North,0,3.0,12.0,76,0.00,,,0.00,,2013-03-21 14:22:00,
2013-03-21 10:32:00,21.0,15.0,29.90,NW,315,5.0,8.0,76,0.00,,,0.00,,2013-03-21 14:32:00,
2013-03-21 10:42:00,21.0,15.0,29.90,NW,315,5.0,8.0,76,0.00,,,0.00,,2013-03-21 14:42:00,
2013-03-21 10:52:00,21.0,15.0,29.92,NW,315,5.0,5.0,77,0.00,,,0.00,,2013-03-21 14:52:00,
2013-03-21 11:03:00,21.0,15.0,29.92,WNW,292,2.0,8.0,78,0.00,,,0.00,,2013-03-21 15:03:00,
2013-03-21 11:12:00,21.0,15.0,29.92,WNW,292,2.0,8.0,78,0.00,,,0.00,,2013-03-21 15:12:00,
2013-03-21 11:22:00,21.0,15.0,29.92,NW,315,7.0,10.0,78,0.00,,,0.00,,2013-03-21 15:22:00,
2013-03-21 11:33:00,21.0,15.0,29.93,NW,315,5.0,9.0,77,0.00,,,0.00,,2013-03-21 15:33:00,
2013-03-21 11:42:00,21.0,15.0,29.93,NW,315,5.0,9.0,77,0.00,,,0.00,,2013-03-21 15:42:00,
2013-03-21 11:53:00,21.0,15.0,29.93,NW,315,5.0,9.0,77,0.00,,,0.00,,2013-03-21 15:53:00,
2013-03-21 12:03:00,22.0,15.0,29.92,NW,315,4.0,9.0,75,0.00,,,0.00,,2013-03-21 16:03:00,
2013-03-21 12:12:00,22.0,15.0,29.92,NW,315,4.0,9.0,75,0.00,,,0.00,,2013-03-21 16:12:00,
2013-03-21 12:23:00,22.0,15.0,29.92,NW,315,4.0,9.0,75,0.00,,,0.00,,2013-03-21 16:23:00,
2013-03-21 12:33:00,22.0,15.0,29.92,NW,315,4.0,9.0,75,0.00,,,0.00,,2013-03-21 16:33:00,
2013-03-21 12:42:00,22.0,15.0,29.92,NW,315,4.0,9.0,75,0.00,,,0.00,,2013-03-21 16:42:00,
2013-03-21 12:53:00,24.0,16.0,29.92,NW,315,6.0,6.0,70,0.00,,,0.00,,2013-03-21 16:53:00,
2013-03-21 13:02:00,24.0,16.0,29.92,NW,315,3.0,6.0,72,0.00,,,0.00,,2013-03-21 17:02:00,
2013-03-21 13:12:00,24.0,16.0,29.92,NW,315,3.0,6.0,72,0.00,,,0.00,,2013-03-21 17:12:00,
2013-03-21 13:23:00,24.0,16.0,29.92,NNW,338,3.0,8.0,71,0.00,,,0.00,,2013-03-21 17:23:00,
2013-03-21 13:32:00,25.0,16.0,29.92,NW,315,5.0,7.0,69,0.00,,,0.00,,2013-03-21 17:32:00,
2013-03-21 13:42:00,25.0,16.0,29.92,NW,315,5.0,7.0,69,0.00,,,0.00,,2013-03-21 17:42:00,
2013-03-21 13:53:00,25.0,16.0,29.92,NW,315,5.0,9.0,68,0.00,,,0.00,,2013-03-21 17:53:00,
2013-03-21 14:02:00,25.0,15.0,29.92,WNW,292,5.0,9.0,66,0.00,,,0.00,,2013-03-21 18:02:00,
2013-03-21 14:12:00,25.0,15.0,29.92,WNW,292,5.0,9.0,66,0.00,,,0.00,,2013-03-21 18:12:00,
2013-03-21 14:22:00,26.0,16.0,29.92,NW,315,2.0,7.0,65,0.00,,,0.00,,2013-03-21 18:22:00,
2013-03-21 14:32:00,26.0,16.0,29.92,WNW,293,3.0,7.0,64,0.00,,,0.00,,2013-03-21 18:32:00,
2013-03-21 14:42:00,26.0,16.0,29.92,WNW,293,3.0,7.0,64,0.00,,,0.00,,2013-03-21 18:42:00,
2013-03-21 14:52:00,26.0,15.0,29.92,WNW,292,3.0,6.0,63,0.00,,,0.00,,2013-03-21 18:52:00,
2013-03-21 15:02:00,26.0,15.0,29.92,NW,315,7.0,7.0,63,0.00,,,0.00,,2013-03-21 19:02:00,
2013-03-21 15:12:00,26.0,15.0,29.92,NW,315,7.0,7.0,63,0.00,,,0.00,,2013-03-21 19:12:00,
2013-03-21 15:22:00,26.0,15.0,29.93,North,358,4.0,7.0,63,0.00,,,0.00,,2013-03-21 19:22:00,
2013-03-21 15:32:00,26.0,16.0,29.93,NNW,338,5.0,6.0,65,0.00,,,0.00,,2013-03-21 19:32:00,
2013-03-21 15:42:00,26.0,16.0,29.93,NNW,338,5.0,6.0,65,0.00,,,0.00,,2013-03-21 19:42:00,
2013-03-21 15:52:00,26.0,16.0,29.93,NW,315,6.0,7.0,65,0.00,,,0.00,,2013-03-21 19:52:00,
2013-03-21 16:02:00,26.0,16.0,29.92,NNW,338,5.0,8.0,64,0.00,,,0.00,,2013-03-21 20:02:00,
2013-03-21 16:12:00,26.0,16.0,29.92,NNW,338,5.0,8.0,64,0.00,,,0.00,,2013-03-21 20:12:00,
2013-03-21 16:22:00,26.0,16.0,29.92,NNW,338,5.0,8.0,64,0.00,,,0.00,,2013-03-21 20:22:00,
2013-03-21 16:33:00,27.0,16.0,29.92,West,270,2.0,6.0,62,0.00,,,0.00,,2013-03-21 20:33:00,
2013-03-21 16:42:00,27.0,16.0,29.92,West,270,2.0,6.0,62,0.00,,,0.00,,2013-03-21 20:42:00,
2013-03-21 16:53:00,27.0,15.0,29.91,WNW,292,3.0,6.0,61,0.00,,,0.00,,2013-03-21 20:53:00,
2013-03-21 17:02:00,26.0,15.0,29.93,NW,315,4.0,10.0,62,0.00,,,0.00,,2013-03-21 21:02:00,
2013-03-21 17:12:00,26.0,15.0,29.93,NW,315,4.0,10.0,62,0.00,,,0.00,,2013-03-21 21:12:00,
2013-03-21 17:22:00,26.0,15.0,29.93,NW,315,2.0,7.0,62,0.00,,,0.00,,2013-03-21 21:22:00,
2013-03-21 17:32:00,26.0,15.0,29.93,NNW,338,5.0,7.0,62,0.00,,,0.00,,2013-03-21 21:32:00,
2013-03-21 17:43:00,26.0,15.0,29.93,NNW,338,5.0,7.0,62,0.00,,,0.00,,2013-03-21 21:43:00,
2013-03-21 17:53:00,25.0,14.0,29.92,NW,309,5.0,7.0,63,0.00,,,0.00,,2013-03-21 21:53:00,
2013-03-21 18:02:00,25.0,14.0,29.92,NW,314,4.0,5.0,63,0.00,,,0.00,,2013-03-21 22:02:00,
2013-03-21 18:13:00,25.0,14.0,29.92,NW,314,4.0,5.0,63,0.00,,,0.00,,2013-03-21 22:13:00,
2013-03-21 18:23:00,25.0,15.0,29.93,NW,317,3.0,8.0,65,0.00,,,0.00,,2013-03-21 22:23:00,
2013-03-21 18:33:00,24.0,14.0,29.93,West,270,3.0,8.0,65,0.00,,,0.00,,2013-03-21 22:33:00,
2013-03-21 18:42:00,24.0,14.0,29.93,West,270,3.0,8.0,65,0.00,,,0.00,,2013-03-21 22:42:00,
2013-03-21 18:52:00,25.0,15.0,29.93,NW,315,5.0,6.0,64,0.00,,,0.00,,2013-03-21 22:52:00,
2013-03-21 19:02:00,24.0,14.0,29.93,NW,312,3.0,5.0,65,0.00,,,0.00,,2013-03-21 23:02:00,
2013-03-21 19:12:00,24.0,14.0,29.93,NW,312,3.0,5.0,65,0.00,,,0.00,,2013-03-21 23:12:00,
2013-03-21 19:22:00,24.0,14.0,29.93,NW,315,9.0,35.0,65,0.00,,,0.00,,2013-03-21 23:22:00,
2013-03-21 19:32:00,23.0,13.0,29.93,NW,315,5.0,43.0,65,0.00,,,0.00,,2013-03-21 23:32:00,
2013-03-21 19:42:00,23.0,13.0,29.93,NW,315,5.0,43.0,65,0.00,,,0.00,,2013-03-21 23:42:00,
2013-03-21 19:53:00,22.0,12.0,29.93,WNW,285,7.0,30.0,66,0.00,,,0.00,,2013-03-21 23:53:00,
2013-03-21 20:02:00,22.0,13.0,29.93,NW,315,17.0,21.0,68,0.00,,,0.00,,2013-03-22 00:02:00,
2013-03-21 20:12:00,22.0,13.0,29.93,NW,315,17.0,21.0,68,0.00,,,0.00,,2013-03-22 00:12:00,
2013-03-21 20:22:00,22.0,13.0,29.94,NW,315,14.0,20.0,68,0.00,,,0.00,,2013-03-22 00:22:00,
2013-03-21 20:32:00,21.0,12.0,29.93,WNW,292,1.0,17.0,69,0.00,,,0.00,,2013-03-22 00:32:00,
2013-03-21 20:42:00,21.0,12.0,29.93,WNW,292,1.0,17.0,69,0.00,,,0.00,,2013-03-22 00:42:00,
2013-03-21 20:52:00,20.0,11.0,29.93,WNW,295,1.0,5.0,69,0.00,,,0.00,,2013-03-22 00:52:00,
2013-03-21 21:02:00,20.0,11.0,29.93,WNW,295,1.0,5.0,69,0.00,,,0.00,,2013-03-22 01:02:00,
2013-03-21 21:12:00,20.0,11.0,29.93,WNW,295,1.0,5.0,69,0.00,,,0.00,,2013-03-22 01:12:00,
2013-03-21 21:22:00,18.0,10.0,29.94,West,273,3.0,3.0,71,0.00,,,0.00,,2013-03-22 01:22:00,
2013-03-21 21:32:00,18.0,11.0,29.93,West,278,1.0,3.0,72,0.00,,,0.00,,2013-03-22 01:32:00,
2013-03-21 21:43:00,18.0,11.0,29.93,West,278,1.0,3.0,72,0.00,,,0.00,,2013-03-22 01:43:00,
2013-03-21 21:53:00,18.0,11.0,29.93,West,278,1.0,3.0,72,0.00,,,0.00,,2013-03-22 01:53:00,
2013-03-21 22:02:00,17.0,10.0,29.93,WNW,292,2.0,2.0,73,0.00,,,0.00,,2013-03-22 02:02:00,
2013-03-21 22:12:00,17.0,10.0,29.93,WNW,292,2.0,2.0,73,0.00,,,0.00,,2013-03-22 02:12:00,
2013-03-21 22:22:00,17.0,10.0,29.93,WNW,292,1.0,3.0,74,0.00,,,0.00,,2013-03-22 02:22:00,
2013-03-21 22:32:00,17.0,10.0,29.93,WNW,292,1.0,3.0,74,0.00,,,0.00,,2013-03-22 02:32:00,
2013-03-21 22:42:00,17.0,10.0,29.93,WNW,292,1.0,3.0,74,0.00,,,0.00,,2013-03-22 02:42:00,
2013-03-21 22:53:00,17.0,10.0,29.93,WNW,292,1.0,3.0,74,0.00,,,0.00,,2013-03-22 02:53:00,
2013-03-21 23:02:00,16.0,9.0,29.94,West,272,0.0,2.0,75,0.00,,,0.00,,2013-03-22 03:02:00,
2013-03-21 23:12:00,16.0,9.0,29.94,West,272,0.0,2.0,75,0.00,,,0.00,,2013-03-22 03:12:00,
2013-03-21 23:22:00,16.0,9.0,29.94,NW,315,2.0,3.0,75,0.00,,,0.00,,2013-03-22 03:22:00,
2013-03-21 23:33:00,15.0,9.0,29.94,WNW,292,1.0,3.0,76,0.00,,,0.00,,2013-03-22 03:33:00,
2013-03-21 23:43:00,15.0,9.0,29.94,WNW,292,1.0,3.0,76,0.00,,,0.00,,2013-03-22 03:43:00,
2013-03-21 23:53:00,15.0,9.0,29.94,WSW,253,3.0,5.0,76,0.00,,,0.00,,2013-03-22 03:53:00,